NKS4512 KFLL-KSAV

Flight info

Callsign NKS4512
Flight time 1h 8m
Altitude 27000
Route AGERS1 DUCEN Q87 VIYAP
Aircraft A320/M-SDE3FGHIRWY/LB1

Departure

Time 2026-04-22 00:08
Airport Fort Lauderdale Hollywood International Airport (KFLL)

Arrival

Time 2026-04-22 01:16
Airport Savannah Hilton Head International Airport (KSAV)
Time Latitude Longitude Altitude Speed Heading
2026-04-21 23:32 26.06880 -80.14432 16 ft 0 kts
2026-04-21 23:58 26.06871 -80.14432 16 ft 4 kts
2026-04-21 23:58 26.06849 -80.14432 16 ft 2 kts
2026-04-21 23:58 26.06825 -80.14428 16 ft 4 kts 317°
2026-04-21 23:58 26.06818 -80.14407 16 ft 4 kts 270°
2026-04-21 23:59 26.06818 -80.14395 16 ft 0 kts 270°
2026-04-22 00:01 26.06818 -80.14426 16 ft 12 kts 270°
2026-04-22 00:01 26.06819 -80.14538 16 ft 15 kts 270°
2026-04-22 00:02 26.06767 -80.14636 15 ft 16 kts 263°
2026-04-22 00:02 26.06767 -80.14769 15 ft 18 kts 270°
2026-04-22 00:02 26.06766 -80.14918 15 ft 20 kts 270°
2026-04-22 00:02 26.06768 -80.15071 16 ft 15 kts 271°
2026-04-22 00:03 26.06835 -80.15130 16 ft 16 kts
2026-04-22 00:03 26.06954 -80.15129 17 ft 19 kts
2026-04-22 00:03 26.07092 -80.15128 18 ft 21 kts
2026-04-22 00:03 26.07247 -80.15127 16 ft 23 kts
2026-04-22 00:04 26.07417 -80.15125 16 ft 24 kts
2026-04-22 00:04 26.07540 -80.15127 16 ft 15 kts 351°
2026-04-22 00:04 26.07563 -80.15237 16 ft 17 kts 270°
2026-04-22 00:04 26.07564 -80.15372 16 ft 19 kts 270°
2026-04-22 00:05 26.07565 -80.15526 16 ft 21 kts 270°
2026-04-22 00:05 26.07567 -80.15695 16 ft 23 kts 270°
2026-04-22 00:05 26.07567 -80.15880 16 ft 25 kts 270°
2026-04-22 00:05 26.07567 -80.16077 17 ft 27 kts 270°
2026-04-22 00:06 26.07569 -80.16257 17 ft 13 kts 270°
2026-04-22 00:06 26.07569 -80.16377 17 ft 18 kts 269°
2026-04-22 00:06 26.07570 -80.16523 16 ft 20 kts 271°
2026-04-22 00:06 26.07593 -80.16634 18 ft 13 kts 324°
2026-04-22 00:07 26.07684 -80.16638 20 ft 13 kts 18°
2026-04-22 00:07 26.07697 -80.16564 18 ft 12 kts 92°
2026-04-22 00:07 26.07694 -80.16286 21 ft 69 kts 89°
2026-04-22 00:07 26.07690 -80.15515 15 ft 126 kts 90°
2026-04-22 00:08 26.07683 -80.14405 258 ft 149 kts 90°
2026-04-22 00:08 26.07705 -80.13249 897 ft 151 kts 87°
2026-04-22 00:08 26.07739 -80.12100 1589 ft 151 kts 87°
2026-04-22 00:08 26.07775 -80.10906 2090 ft 162 kts 86°
2026-04-22 00:09 26.07938 -80.09589 2358 ft 183 kts 70°
2026-04-22 00:09 26.08477 -80.08196 2685 ft 208 kts 63°
2026-04-22 00:09 26.09490 -80.06975 3109 ft 235 kts 31°
2026-04-22 00:09 26.11056 -80.06302 3873 ft 246 kts 23°
2026-04-22 00:10 26.12691 -80.05654 4787 ft 251 kts 23°
2026-04-22 00:10 26.14352 -80.05006 5712 ft 256 kts 19°
2026-04-22 00:10 26.16164 -80.04890 6566 ft 268 kts 352°
2026-04-22 00:10 26.17950 -80.05513 7416 ft 275 kts 343°
2026-04-22 00:11 26.19762 -80.06234 8280 ft 279 kts 339°
2026-04-22 00:11 26.21461 -80.07348 9089 ft 287 kts 322°
2026-04-22 00:11 26.22828 -80.08990 9879 ft 292 kts 305°
2026-04-22 00:11 26.23735 -80.11004 10596 ft 301 kts 292°
2026-04-22 00:12 26.24643 -80.13207 10814 ft 323 kts 301°
2026-04-22 00:12 26.26009 -80.15296 11071 ft 342 kts 313°
2026-04-22 00:12 26.27815 -80.17059 11649 ft 348 kts 326°
2026-04-22 00:12 26.29934 -80.18394 12341 ft 351 kts 333°
2026-04-22 00:13 26.32131 -80.19628 13049 ft 354 kts 333°
2026-04-22 00:13 26.34314 -80.20859 13738 ft 357 kts 333°
2026-04-22 00:13 26.36558 -80.22070 14402 ft 360 kts 338°
2026-04-22 00:13 26.38977 -80.22862 15051 ft 364 kts 349°
2026-04-22 00:14 26.41507 -80.23181 15681 ft 366 kts 353°
2026-04-22 00:14 26.44032 -80.23436 16270 ft 369 kts 353°
2026-04-22 00:14 26.46604 -80.23695 16858 ft 372 kts 353°
2026-04-22 00:14 26.49196 -80.23957 17449 ft 374 kts 353°
2026-04-22 00:15 26.51805 -80.24223 18028 ft 377 kts 353°
2026-04-22 00:15 26.54432 -80.24495 18600 ft 380 kts 353°
2026-04-22 00:15 26.57077 -80.24783 19172 ft 382 kts 351°
2026-04-22 00:15 26.59703 -80.25153 19722 ft 385 kts 349°
2026-04-22 00:16 26.62359 -80.25596 20274 ft 387 kts 348°
2026-04-22 00:16 26.65029 -80.26074 20823 ft 390 kts 348°
2026-04-22 00:16 26.67727 -80.26561 21351 ft 392 kts 347°
2026-04-22 00:16 26.70419 -80.27106 21827 ft 393 kts 342°
2026-04-22 00:17 26.73010 -80.28067 22303 ft 393 kts 336°
2026-04-22 00:17 26.75545 -80.29135 22768 ft 395 kts 336°
2026-04-22 00:17 26.78125 -80.30215 23239 ft 397 kts 336°
2026-04-22 00:17 26.80724 -80.31300 23696 ft 399 kts 336°
2026-04-22 00:18 26.83336 -80.32391 24137 ft 401 kts 336°
2026-04-22 00:18 26.85959 -80.33482 24574 ft 403 kts 336°
2026-04-22 00:18 26.87712 -80.34212 24871 ft 404 kts 336°
2026-04-22 00:18 26.90353 -80.35315 25299 ft 406 kts 336°
2026-04-22 00:19 26.93870 -80.36788 25868 ft 408 kts 336°
2026-04-22 00:19 26.95672 -80.37537 26151 ft 408 kts 336°
2026-04-22 00:19 26.98325 -80.38616 26557 ft 410 kts 336°
2026-04-22 00:19 27.01018 -80.39698 26970 ft 412 kts 336°
2026-04-22 00:20 27.03722 -80.40780 27216 ft 412 kts 337°
2026-04-22 00:20 27.06427 -80.41865 27272 ft 412 kts 336°
2026-04-22 00:20 27.09127 -80.42949 27276 ft 411 kts 336°
2026-04-22 00:20 27.11812 -80.44067 27276 ft 411 kts 335°
2026-04-22 00:21 27.14482 -80.45232 27276 ft 410 kts 335°
2026-04-22 00:21 27.17096 -80.46403 27274 ft 410 kts 335°
2026-04-22 00:21 27.19751 -80.47603 27275 ft 410 kts 335°
2026-04-22 00:21 27.22400 -80.48796 27276 ft 410 kts 335°
2026-04-22 00:22 27.25056 -80.49984 27275 ft 410 kts 335°
2026-04-22 00:22 27.27683 -80.51149 27276 ft 410 kts 335°
2026-04-22 00:22 27.30343 -80.52323 27274 ft 411 kts 335°
2026-04-22 00:22 27.33007 -80.53499 27278 ft 410 kts 335°
2026-04-22 00:23 27.35664 -80.54673 27280 ft 410 kts 335°
2026-04-22 00:23 27.38328 -80.55828 27284 ft 410 kts 336°
2026-04-22 00:23 27.41023 -80.56927 27286 ft 411 kts 337°
2026-04-22 00:23 27.43720 -80.57987 27288 ft 410 kts 338°
2026-04-22 00:24 27.46392 -80.59022 27287 ft 411 kts 338°
2026-04-22 00:24 27.49097 -80.60070 27289 ft 411 kts 338°
2026-04-22 00:24 27.51808 -80.61128 27290 ft 410 kts 337°
2026-04-22 00:24 27.54506 -80.62192 27291 ft 410 kts 337°
2026-04-22 00:25 27.57200 -80.63263 27292 ft 410 kts 337°
2026-04-22 00:25 27.59893 -80.64340 27292 ft 410 kts 337°
2026-04-22 00:25 27.62553 -80.65406 27292 ft 410 kts 337°
2026-04-22 00:25 27.65249 -80.66482 27289 ft 410 kts 337°
2026-04-22 00:26 27.67942 -80.67554 27289 ft 410 kts 337°
2026-04-22 00:26 27.70641 -80.68629 27292 ft 410 kts 337°
2026-04-22 00:26 27.73332 -80.69703 27293 ft 410 kts 337°
2026-04-22 00:26 27.75995 -80.70769 27292 ft 410 kts 337°
2026-04-22 00:27 27.78689 -80.71847 27292 ft 410 kts 337°
2026-04-22 00:27 27.81383 -80.72926 27292 ft 410 kts 337°
2026-04-22 00:27 27.84071 -80.74003 27293 ft 410 kts 337°
2026-04-22 00:27 27.86766 -80.75086 27294 ft 410 kts 337°
2026-04-22 00:28 27.89465 -80.76167 27292 ft 410 kts 337°
2026-04-22 00:28 27.92125 -80.77231 27291 ft 410 kts 337°
2026-04-22 00:28 27.94810 -80.78304 27289 ft 410 kts 337°
2026-04-22 00:28 27.97507 -80.79383 27286 ft 410 kts 337°
2026-04-22 00:29 28.00201 -80.80466 27286 ft 411 kts 337°
2026-04-22 00:29 28.02894 -80.81548 27286 ft 411 kts 337°
2026-04-22 00:29 28.05585 -80.82629 27287 ft 411 kts 337°
2026-04-22 00:29 28.08288 -80.83716 27289 ft 410 kts 337°
2026-04-22 00:30 28.10984 -80.84800 27289 ft 411 kts 337°
2026-04-22 00:30 28.13675 -80.85881 27289 ft 411 kts 337°
2026-04-22 00:30 28.16340 -80.86953 27287 ft 411 kts 337°
2026-04-22 00:30 28.19039 -80.88040 27286 ft 411 kts 337°
2026-04-22 00:31 28.21735 -80.89126 27284 ft 412 kts 337°
2026-04-22 00:31 28.24435 -80.90216 27287 ft 412 kts 337°
2026-04-22 00:31 28.27142 -80.91312 27289 ft 412 kts 337°
2026-04-22 00:31 28.29847 -80.92407 27292 ft 412 kts 337°
2026-04-22 00:32 28.32516 -80.93487 27295 ft 412 kts 337°
2026-04-22 00:32 28.35219 -80.94580 27299 ft 412 kts 337°
2026-04-22 00:32 28.37931 -80.95678 27301 ft 412 kts 337°
2026-04-22 00:32 28.40641 -80.96777 27302 ft 412 kts 337°
2026-04-22 00:33 28.43312 -80.97864 27304 ft 412 kts 337°
2026-04-22 00:33 28.46023 -80.98968 27305 ft 413 kts 337°
2026-04-22 00:33 28.48733 -81.00068 27306 ft 413 kts 337°
2026-04-22 00:33 28.51447 -81.01164 27308 ft 413 kts 337°
2026-04-22 00:34 28.54160 -81.02260 27307 ft 413 kts 337°
2026-04-22 00:34 28.56843 -81.03345 27306 ft 414 kts 337°
2026-04-22 00:34 28.59561 -81.04447 27308 ft 414 kts 337°
2026-04-22 00:34 28.62277 -81.05551 27308 ft 414 kts 337°
2026-04-22 00:35 28.64990 -81.06658 27309 ft 414 kts 336°
2026-04-22 00:35 28.67703 -81.07767 27307 ft 413 kts 336°
2026-04-22 00:35 28.70385 -81.08863 27307 ft 414 kts 337°
2026-04-22 00:35 28.73106 -81.09971 27308 ft 414 kts 337°
2026-04-22 00:36 28.75824 -81.11078 27308 ft 414 kts 337°
2026-04-22 00:36 28.78539 -81.12187 27309 ft 414 kts 337°
2026-04-22 00:36 28.81257 -81.13297 27309 ft 414 kts 337°
2026-04-22 00:36 28.83972 -81.14404 27310 ft 414 kts 337°
2026-04-22 00:37 28.86688 -81.15515 27310 ft 414 kts 336°
2026-04-22 00:37 28.89364 -81.16613 27310 ft 414 kts 337°
2026-04-22 00:37 28.92075 -81.17723 27313 ft 414 kts 337°
2026-04-22 00:37 28.94804 -81.18838 27312 ft 414 kts 337°
2026-04-22 00:38 28.97516 -81.19943 27314 ft 414 kts 337°
2026-04-22 00:38 29.00233 -81.21052 27318 ft 414 kts 337°
2026-04-22 00:38 29.02952 -81.22168 27319 ft 414 kts 337°
2026-04-22 00:38 29.05637 -81.23273 27320 ft 414 kts 337°
2026-04-22 00:39 29.08351 -81.24387 27322 ft 414 kts 337°
2026-04-22 00:39 29.11069 -81.25502 27327 ft 414 kts 337°
2026-04-22 00:39 29.13791 -81.26618 27324 ft 414 kts 337°
2026-04-22 00:39 29.16476 -81.27719 27328 ft 414 kts 337°
2026-04-22 00:40 29.19188 -81.28837 27327 ft 414 kts 337°
2026-04-22 00:40 29.21906 -81.29959 27329 ft 414 kts 337°
2026-04-22 00:40 29.24621 -81.31081 27327 ft 415 kts 337°
2026-04-22 00:40 29.27387 -81.32052 27324 ft 418 kts 344°
2026-04-22 00:41 29.30283 -81.32483 27323 ft 422 kts 353°
2026-04-22 00:41 29.33226 -81.32646 27328 ft 422 kts 353°
2026-04-22 00:41 29.36167 -81.32813 27326 ft 422 kts 353°
2026-04-22 00:41 29.39072 -81.32979 27326 ft 422 kts 353°
2026-04-22 00:42 29.42012 -81.33147 27323 ft 422 kts 353°
2026-04-22 00:42 29.44955 -81.33316 27326 ft 423 kts 353°
2026-04-22 00:42 29.47895 -81.33488 27322 ft 422 kts 353°
2026-04-22 00:42 29.50839 -81.33664 27322 ft 422 kts 353°
2026-04-22 00:43 29.53743 -81.33840 27321 ft 422 kts 353°
2026-04-22 00:43 29.56686 -81.34017 27328 ft 422 kts 353°
2026-04-22 00:43 29.59616 -81.34194 27324 ft 422 kts 353°
2026-04-22 00:43 29.62558 -81.34371 27326 ft 422 kts 353°
2026-04-22 00:44 29.65492 -81.34546 27325 ft 422 kts 353°
2026-04-22 00:44 29.68390 -81.34717 27326 ft 422 kts 353°
2026-04-22 00:44 29.71323 -81.34892 27326 ft 422 kts 353°
2026-04-22 00:44 29.74261 -81.35068 27325 ft 422 kts 353°
2026-04-22 00:45 29.77202 -81.35241 27326 ft 422 kts 353°
2026-04-22 00:45 29.80140 -81.35414 27326 ft 422 kts 353°
2026-04-22 00:45 29.83075 -81.35588 27322 ft 422 kts 353°
2026-04-22 00:45 29.86019 -81.35763 27325 ft 422 kts 353°
2026-04-22 00:46 29.88952 -81.35937 27325 ft 422 kts 353°
2026-04-22 00:46 29.91886 -81.36110 27326 ft 422 kts 353°
2026-04-22 00:46 29.94782 -81.36281 27328 ft 422 kts 353°
2026-04-22 00:46 29.97717 -81.36454 27329 ft 422 kts 353°
2026-04-22 00:47 30.00651 -81.36626 27329 ft 422 kts 353°
2026-04-22 00:47 30.03596 -81.36800 27329 ft 422 kts 353°
2026-04-22 00:47 30.06536 -81.36975 27330 ft 422 kts 353°
2026-04-22 00:47 30.09478 -81.37153 27332 ft 422 kts 353°
2026-04-22 00:48 30.12414 -81.37330 27333 ft 422 kts 353°
2026-04-22 00:48 30.15312 -81.37508 27331 ft 422 kts 353°
2026-04-22 00:48 30.18251 -81.37686 27331 ft 422 kts 353°
2026-04-22 00:48 30.21189 -81.37860 27329 ft 422 kts 353°
2026-04-22 00:49 30.24125 -81.38033 27328 ft 422 kts 353°
2026-04-22 00:49 30.27058 -81.38208 27328 ft 422 kts 353°
2026-04-22 00:49 30.29989 -81.38380 27328 ft 422 kts 353°
2026-04-22 00:49 30.32893 -81.38552 27327 ft 422 kts 353°
2026-04-22 00:50 30.35825 -81.38727 27325 ft 422 kts 353°
2026-04-22 00:50 30.38758 -81.38905 27320 ft 421 kts 353°
2026-04-22 00:50 30.41686 -81.39084 27318 ft 421 kts 353°
2026-04-22 00:50 30.44620 -81.39262 27317 ft 421 kts 353°
2026-04-22 00:51 30.47515 -81.39436 27316 ft 422 kts 353°
2026-04-22 00:51 30.50446 -81.39599 27317 ft 422 kts 353°
2026-04-22 00:51 30.53386 -81.39749 27320 ft 422 kts 353°
2026-04-22 00:51 30.56315 -81.39894 27324 ft 422 kts 353°
2026-04-22 00:52 30.59251 -81.40045 27329 ft 422 kts 353°
2026-04-22 00:52 30.62181 -81.40199 27333 ft 422 kts 353°
2026-04-22 00:52 30.65118 -81.40353 27337 ft 422 kts 353°
2026-04-22 00:52 30.68057 -81.40503 27339 ft 422 kts 353°
2026-04-22 00:53 30.70960 -81.40654 27340 ft 422 kts 353°
2026-04-22 00:53 30.73897 -81.40808 27340 ft 421 kts 353°
2026-04-22 00:53 30.76831 -81.40964 27343 ft 421 kts 353°
2026-04-22 00:53 30.79766 -81.41118 27334 ft 421 kts 353°
2026-04-22 00:54 30.82680 -81.41270 26890 ft 417 kts 353°
2026-04-22 00:54 30.85538 -81.41422 26278 ft 414 kts 353°
2026-04-22 00:54 30.88402 -81.41576 25696 ft 409 kts 353°
2026-04-22 00:54 30.91232 -81.41731 25131 ft 405 kts 353°
2026-04-22 00:55 30.94034 -81.41887 24562 ft 401 kts 353°
2026-04-22 00:55 30.96806 -81.42039 24010 ft 397 kts 354°
2026-04-22 00:55 31.02275 -81.42329 22955 ft 389 kts 354°
2026-04-22 00:56 31.04973 -81.42471 22459 ft 385 kts 354°
2026-04-22 00:56 31.07607 -81.42611 21964 ft 382 kts 354°
2026-04-22 00:56 31.10261 -81.42754 21479 ft 378 kts 354°
2026-04-22 00:56 31.12882 -81.42896 21010 ft 374 kts 355°
2026-04-22 00:57 31.15474 -81.43035 20530 ft 370 kts 355°
2026-04-22 00:57 31.18007 -81.43168 20060 ft 366 kts 355°
2026-04-22 00:57 31.20542 -81.43302 19583 ft 363 kts 355°
2026-04-22 00:57 31.23047 -81.43437 19113 ft 358 kts 355°
2026-04-22 00:58 31.25535 -81.43392 18593 ft 357 kts
2026-04-22 00:58 31.27979 -81.42839 18050 ft 357 kts 10°
2026-04-22 00:58 31.30406 -81.42192 17264 ft 361 kts 11°
2026-04-22 00:58 31.32857 -81.41539 16617 ft 361 kts 11°
2026-04-22 00:59 31.35300 -81.40887 16051 ft 358 kts 11°
2026-04-22 00:59 31.37719 -81.40244 15481 ft 355 kts 11°
2026-04-22 00:59 31.40126 -81.39607 14906 ft 353 kts 11°
2026-04-22 00:59 31.42483 -81.38985 14341 ft 351 kts 11°
2026-04-22 01:00 31.44861 -81.38356 13775 ft 348 kts 12°
2026-04-22 01:00 31.47217 -81.37733 13216 ft 346 kts 12°
2026-04-22 01:00 31.49556 -81.37116 12656 ft 343 kts 12°
2026-04-22 01:00 31.51875 -81.36503 12100 ft 340 kts 12°
2026-04-22 01:01 31.54176 -81.35891 11548 ft 338 kts 12°
2026-04-22 01:01 31.56463 -81.35283 10992 ft 336 kts 12°
2026-04-22 01:01 31.58746 -81.34680 10535 ft 331 kts 12°
2026-04-22 01:01 31.60919 -81.34104 10409 ft 317 kts 12°
2026-04-22 01:02 31.62998 -81.33549 10275 ft 294 kts 13°
2026-04-22 01:02 31.64948 -81.33025 9988 ft 284 kts 13°
2026-04-22 01:02 31.66858 -81.32515 9728 ft 280 kts 13°
2026-04-22 01:02 31.68750 -81.32009 9395 ft 278 kts 13°
2026-04-22 01:03 31.70639 -81.31503 9057 ft 277 kts 13°
2026-04-22 01:03 31.72526 -81.30997 8698 ft 277 kts 13°
2026-04-22 01:03 31.74406 -81.30496 8364 ft 276 kts 13°
2026-04-22 01:03 31.76279 -81.29997 8035 ft 275 kts 13°
2026-04-22 01:04 31.78146 -81.29499 7703 ft 274 kts 13°
2026-04-22 01:04 31.79979 -81.29011 7385 ft 273 kts 13°
2026-04-22 01:04 31.81828 -81.28516 7064 ft 271 kts 13°
2026-04-22 01:04 31.83667 -81.28021 6748 ft 270 kts 13°
2026-04-22 01:05 31.85495 -81.27530 6425 ft 269 kts 13°
2026-04-22 01:05 31.87314 -81.27047 6101 ft 268 kts 13°
2026-04-22 01:05 31.89137 -81.26561 5795 ft 267 kts 12°
2026-04-22 01:05 31.90943 -81.26078 5489 ft 265 kts 13°
2026-04-22 01:06 31.92722 -81.25600 5161 ft 265 kts 13°
2026-04-22 01:06 31.94516 -81.25119 4981 ft 261 kts 14°
2026-04-22 01:06 31.96248 -81.24656 4973 ft 248 kts 13°
2026-04-22 01:06 31.97886 -81.24218 4933 ft 235 kts 13°
2026-04-22 01:07 31.99453 -81.23800 4815 ft 226 kts 13°
2026-04-22 01:07 32.00459 -81.23532 4660 ft 223 kts 13°
2026-04-22 01:07 32.01970 -81.23139 4362 ft 223 kts 10°
2026-04-22 01:07 32.03517 -81.22980 4084 ft 221 kts
2026-04-22 01:08 32.05063 -81.22928 3782 ft 222 kts
2026-04-22 01:08 32.06610 -81.22902 3490 ft 221 kts
2026-04-22 01:08 32.08074 -81.23351 3192 ft 224 kts 329°
2026-04-22 01:08 32.09101 -81.24716 3021 ft 227 kts 293°
2026-04-22 01:09 32.09430 -81.26548 3017 ft 230 kts 274°
2026-04-22 01:09 32.09402 -81.28436 3019 ft 230 kts 264°
2026-04-22 01:09 32.09246 -81.30280 2776 ft 228 kts 263°
2026-04-22 01:09 32.09070 -81.32139 2475 ft 227 kts 262°
2026-04-22 01:10 32.08894 -81.33987 2192 ft 226 kts 262°
2026-04-22 01:10 32.08720 -81.35824 2023 ft 223 kts 263°
2026-04-22 01:10 32.08555 -81.37569 2009 ft 211 kts 262°
2026-04-22 01:10 32.08397 -81.39277 2025 ft 207 kts 263°
2026-04-22 01:11 32.08517 -81.40949 2003 ft 206 kts 293°
2026-04-22 01:11 32.09419 -81.42203 2009 ft 198 kts 332°
2026-04-22 01:11 32.10711 -81.42519 2009 ft 188 kts 12°
2026-04-22 01:11 32.11892 -81.41928 2011 ft 184 kts 39°
2026-04-22 01:12 32.12712 -81.40806 2013 ft 181 kts 65°
2026-04-22 01:12 32.13018 -81.39404 2022 ft 179 kts 89°
2026-04-22 01:12 32.13009 -81.37925 2021 ft 179 kts 91°
2026-04-22 01:12 32.12996 -81.36458 2017 ft 179 kts 91°
2026-04-22 01:13 32.12985 -81.35069 2033 ft 154 kts 91°
2026-04-22 01:13 32.12976 -81.33868 1938 ft 141 kts 91°
2026-04-22 01:13 32.12966 -81.32734 1799 ft 136 kts 91°
2026-04-22 01:13 32.12957 -81.31626 1639 ft 134 kts 91°
2026-04-22 01:14 32.12948 -81.30525 1462 ft 134 kts 91°
2026-04-22 01:14 32.12939 -81.29441 1298 ft 134 kts 91°
2026-04-22 01:14 32.12930 -81.28345 1123 ft 133 kts 91°
2026-04-22 01:14 32.12921 -81.27252 946 ft 133 kts 91°
2026-04-22 01:15 32.12913 -81.26161 771 ft 133 kts 91°
2026-04-22 01:15 32.12906 -81.25067 593 ft 133 kts 91°
2026-04-22 01:15 32.12893 -81.23992 419 ft 133 kts 91°
2026-04-22 01:15 32.12884 -81.22896 238 ft 133 kts 91°
2026-04-22 01:16 32.12874 -81.21801 71 ft 133 kts 91°
2026-04-22 01:16 32.12865 -81.20808 43 ft 99 kts 90°
2026-04-22 01:16 32.12861 -81.20202 43 ft 56 kts 91°
2026-04-22 01:16 32.12860 -81.19866 42 ft 21 kts 86°
2026-04-22 01:17 32.12946 -81.19811 48 ft 14 kts
2026-04-22 01:17 32.13037 -81.19819 52 ft 13 kts
2026-04-22 01:17 32.13134 -81.19817 51 ft 15 kts
2026-04-22 01:17 32.13249 -81.19819 51 ft 18 kts 359°
2026-04-22 01:18 32.13381 -81.19820 53 ft 21 kts 359°
2026-04-22 01:18 32.13521 -81.19824 51 ft 12 kts 357°
2026-04-22 01:18 32.13557 -81.19908 51 ft 18 kts 273°
2026-04-22 01:18 32.13569 -81.20079 48 ft 22 kts 274°
2026-04-22 01:19 32.13571 -81.20266 54 ft 24 kts 269°
2026-04-22 01:19 32.13574 -81.20451 54 ft 17 kts 285°
2026-04-22 01:19 32.13643 -81.20547 50 ft 14 kts 315°
2026-04-22 01:19 32.13671 -81.20608 54 ft 0 kts 275°
2026-04-22 01:20 32.13671 -81.20619 54 ft 5 kts 266°
2026-04-22 01:20 32.13627 -81.20656 52 ft 8 kts 202°
2026-04-22 01:20 32.13608 -81.20666 54 ft 0 kts 202°